This demonstration page uses our WeatherBlox Daily Observations layout. Learn more.

Left ArrowRight Arrow

Hourly Observations for October 5, 2016

Temp ( °F °C ) Dew Point ( °F °C ) Humidity (%) Winds ( mph kmh ) Pressure ( in mb ) Visibility ( mi km ) Precip ( " mm )
12:16 am 00:16 Clear 64 18 57 14 78 78 SE 6 9 30.06 1018 10 16.0934 N/A
12:35 am 00:35 Clear 64 18 57 14 78 78 SE 5 7 30.06 1018 10 16.0934 N/A
12:56 am 00:56 Clear 64 18 59 15 83 83 SE 6 9 30.06 1018 10 16.0934 N/A
1:16 am 01:16 Clear 64 18 59 15 83 83 SE 6 9 30.06 1018 10 16.0934 N/A
1:35 am 01:35 Clear 64 18 59 15 83 83 SE 6 9 30.06 1018 10 16.0934 N/A
1:56 am 01:56 Clear 63 17 59 15 88 88 SE 6 9 30.06 1018 10 16.0934 N/A
2:16 am 02:16 Clear 63 17 59 15 88 88 SE 6 9 30.03 1017 10 16.0934 N/A
2:35 am 02:35 Clear 63 17 59 15 88 88 SE 6 9 30.06 1018 10 16.0934 N/A
2:56 am 02:56 Clear 63 17 59 15 88 88 SE 6 9 30.06 1018 10 16.0934 N/A
3:16 am 03:16 Clear 63 17 59 15 88 88 SE 3 6 30.06 1018 10 16.0934 N/A
3:36 am 03:36 Clear 63 17 59 15 88 88 SE 6 9 30.06 1018 10 16.0934 N/A
3:56 am 03:56 Clear 63 17 59 15 88 88 SE 6 9 30.06 1018 10 16.0934 N/A
4:16 am 04:16 Clear 63 17 59 15 88 88 SE 5 7 30.06 1018 10 16.0934 N/A
4:36 am 04:36 Partly Cloudy 63 17 59 15 88 88 SE 5 7 30.06 1018 10 16.0934 N/A
4:56 am 04:56 Mostly Cloudy 63 17 59 15 88 88 SSE 5 7 30.06 1018 10 16.0934 N/A
5:16 am 05:16 Partly Cloudy 63 17 57 14 83 83 SE 5 7 30.06 1018 10 16.0934 N/A
5:36 am 05:36 Clear 63 17 57 14 83 83 SE 5 7 30.06 1018 10 16.0934 N/A
5:56 am 05:56 Clear 61 16 57 14 88 88 SSE 5 7 30.06 1018 10 16.0934 N/A
6:15 am 06:15 Partly Cloudy 63 17 57 14 83 83 SSE 6 9 30.06 1018 10 16.0934 N/A
6:36 am 06:36 Mostly Cloudy 63 17 57 14 83 83 SSE 6 9 30.06 1018 10 16.0934 N/A
6:56 am 06:56 Partly Cloudy 63 17 57 14 83 83 SSE 6 9 30.06 1018 10 16.0934 N/A
7:15 am 07:15 Mostly Cloudy 63 17 57 14 83 83 SSE 7 11 30.09 1019 10 16.0934 N/A
7:36 am 07:36 Partly Cloudy 63 17 57 14 83 83 SSE 6 9 30.09 1019 10 16.0934 N/A
7:56 am 07:56 Sunny 63 17 57 14 83 83 SSE 5 7 30.09 1019 10 16.0934 N/A
8:16 am 08:16 Partly Cloudy 63 17 57 14 83 83 SSE 6 9 30.09 1019 10 16.0934 N/A
8:36 am 08:36 Mostly Cloudy 64 18 57 14 78 78 SSE 7 11 30.09 1019 10 16.0934 N/A
8:56 am 08:56 Mostly Cloudy 64 18 59 15 83 83 SSE 8 13 30.09 1019 10 16.0934 N/A
9:16 am 09:16 Cloudy 66 19 59 15 78 78 S 8 13 30.09 1019 10 16.0934 N/A
9:36 am 09:36 Mostly Cloudy 66 19 59 15 78 78 S 8 13 30.12 1020 10 16.0934 N/A
9:56 am 09:56 Partly Cloudy 66 19 59 15 78 78 S 8 13 30.12 1020 10 16.0934 N/A
10:16 am 10:16 Mostly Cloudy 70 21 59 15 69 69 S 12 19 30.12 1020 10 16.0934 N/A
10:36 am 10:36 Partly Cloudy 70 21 59 15 69 69 S 12 19 30.12 1020 10 16.0934 N/A
10:55 am 10:55 Sunny 70 21 59 15 69 69 S 12 19 30.12 1020 10 16.0934 N/A
11:16 am 11:16 Partly Cloudy 70 21 59 15 69 69 S 10 17 30.09 1019 10 16.0934 N/A
11:36 am 11:36 Partly Cloudy 73 23 59 15 61 61 SSW 14 22 30.06 1018 10 16.0934 N/A
11:55 am 11:55 Sunny 75 24 61 16 61 61 S 13 20 30.06 1018 10 16.0934 N/A
12:16 pm 12:16 Sunny 75 24 61 16 61 61 SSW 13 20 30.06 1018 10 16.0934 N/A
12:36 pm 12:36 Partly Cloudy 77 25 61 16 57 57 S 15 24 30.06 1018 10 16.0934 N/A
12:55 pm 12:55 Partly Cloudy 77 25 61 16 57 57 S 12 19 30.06 1018 10 16.0934 N/A
1:16 pm 13:16 Sunny 79 26 61 16 54 54 SSW 15 24 30.06 1018 10 16.0934 N/A
1:36 pm 13:36 Sunny 79 26 61 16 54 54 SSW 14 22 30.03 1017 10 16.0934 N/A
1:55 pm 13:55 Sunny 77 25 61 16 57 57 S 13 20 30.03 1017 10 16.0934 N/A
2:16 pm 14:16 Sunny 79 26 61 16 54 54 S 12 19 30.03 1017 10 16.0934 N/A
2:36 pm 14:36 Sunny 79 26 63 17 58 58 SSW 12 19 30.03 1017 10 16.0934 N/A
2:55 pm 14:55 Sunny 79 26 63 17 58 58 SSW 13 20 30.03 1017 10 16.0934 N/A
3:16 pm 15:16 Partly Cloudy 81 27 63 17 54 54 SSW 8 13 30.03 1017 10 16.0934 N/A
3:36 pm 15:36 Sunny 81 27 63 17 54 54 SSW 10 17 30 1016 10 16.0934 N/A
3:55 pm 15:55 Sunny 79 26 63 17 58 58 SSW 10 17 30 1016 10 16.0934 N/A
4:16 pm 16:16 Partly Cloudy 79 26 63 17 58 58 S 9 15 30 1016 10 16.0934 N/A
4:36 pm 16:36 Partly Cloudy 77 25 63 17 61 61 S 10 17 30 1016 10 16.0934 N/A
4:55 pm 16:55 Mostly Cloudy 77 25 63 17 61 61 S 9 15 30 1016 10 16.0934 N/A
5:16 pm 17:16 Cloudy 77 25 63 17 61 61 S 10 17 30 1016 10 16.0934 N/A
5:36 pm 17:36 Cloudy 77 25 63 17 61 61 S 6 9 30 1016 10 16.0934 N/A
5:55 pm 17:55 Cloudy 75 24 63 17 65 65 S 6 9 30.03 1017 10 16.0934 N/A
6:16 pm 18:16 Mostly Cloudy 75 24 63 17 65 65 S 7 11 30.03 1017 10 16.0934 N/A
6:36 pm 18:36 Mostly Cloudy 75 24 63 17 65 65 SSW 5 7 30.03 1017 10 16.0934 N/A
6:56 pm 18:56 Cloudy 75 24 63 17 65 65 SSW 3 6 30.03 1017 10 16.0934 N/A
7:16 pm 19:16 Cloudy 75 24 63 17 65 65 S 3 6 30.03 1017 10 16.0934 N/A
7:36 pm 19:36 Partly Cloudy 73 23 63 17 69 69 S 3 6 30.03 1017 10 16.0934 N/A
7:56 pm 19:56 Clear 72 22 63 17 73 73 N N/A 30.03 1017 10 16.0934 N/A
8:16 pm 20:16 Clear 72 22 63 17 73 73 S 3 6 30.06 1018 10 16.0934 N/A
8:35 pm 20:35 Clear 70 21 63 17 78 78 S 3 6 30.09 1019 10 16.0934 N/A
8:56 pm 20:56 Clear 70 21 63 17 78 78 SSE 5 7 30.09 1019 10 16.0934 N/A
9:16 pm 21:16 Clear 70 21 63 17 78 78 N N/A 30.09 1019 10 16.0934 N/A
9:36 pm 21:36 Clear 68 20 63 17 83 83 N N/A 30.09 1019 10 16.0934 N/A
9:56 pm 21:56 Clear 66 19 61 16 83 83 S 3 6 30.09 1019 10 16.0934 N/A
10:16 pm 22:16 Clear 66 19 61 16 83 83 N N/A 30.09 1019 10 16.0934 N/A
10:36 pm 22:36 Clear 66 19 61 16 83 83 SSE 3 6 30.12 1020 10 16.0934 N/A
10:56 pm 22:56 Clear 64 18 61 16 88 88 SSE 3 6 30.12 1020 10 16.0934 N/A
11:16 pm 23:16 Clear 66 19 63 17 88 88 SSE 3 6 30.12 1020 10 16.0934 N/A
11:36 pm 23:36 Clear 66 19 61 16 83 83 N N/A 30.12 1020 10 16.0934 N/A
11:56 pm 23:56 Clear 63 17 61 16 94 94 N N/A 30.12 1020 10 16.0934 N/A

Powered by AerisWeather